Content
SEND FEEDBACK

Daily
Averages
Monthly
Summary
Netherlands

HAARLEM, NETHERLANDS


Home > Europe > Netherlands
Elevation: 62 feet     Latitude: 52 28N     Longitude: 004 35E

WEATHER
 
SELECT A DAY
Number of Records: 301,990;   Date Range: 7/1/96 - 7/23/14
 
SHARE

PRINT THIS DATA

[ ← Previous Day ]
WEATHER ALMANAC - JUNE 19, 2013
[ Next Day → ]
[ °C ]   °F
Weather ElementAverageHighLow
Temperature70.3 °F75.2 °F (1:25 pm)62.6 °F (11:55 pm)
Dewpoint62.6 °F64.4 °F (8:55 am)60.8 °F (2:25 am)
Humidity76.1 %94 % (11:55 pm)59 % (5:00 pm)
Barometer29.92 in29.96 in (5:00 pm)29.89 in (5:25 am)
Wind Speed7.8 mph18.4 mph (12:25 pm)
Weather ElementAverage
Visibility7.2 mi
Wind DirectionS (182.2 °)

Weather ElementTotal
Precipitation---
Cooling Degree Days3.9 (Base 65)
Growing Degree Days18.9 (Base 50)
Averaged from 55 records on June 19, 2013
WEATHER CONDITIONS BREAKOUT
WIND DIRECTION BREAKOUT
WEATHER BY HOUR - JUNE 19, 2013
[ °C ]   °F
Local TimeTemperatureDewpointHumidityBarometerVisibilityWind DirectionWind SpeedGust SpeedPrecipitationEventsConditions
12:55 AM66.2 °F62.6 °F88 %29.95 in5.6 miNNW (330°)4.6 mph
1:25 AM66.2 °F62.6 °F88 %29.95 in5.6 miNW (310°)5.8 mph
1:55 AM66.2 °F62.6 °F88 %29.95 inNNW (340°)4.6 mphClear
2:00 AM66.0 °F62.0 °F82 %29.95 in5.0 miNNW (340°)4.5 mphMist
2:25 AM68.0 °F60.8 °F78 %29.92 inVariable2.3 mphClear
2:55 AM66.2 °F60.8 °F83 %29.92 inNNW (330°)4.6 mphClear
3:25 AM64.4 °F60.8 °F88 %29.92 inNNW (330°)4.6 mphClear
3:55 AM66.2 °F60.8 °F83 %29.92 inNorth (350°)3.5 mphClear
4:25 AM66.2 °F60.8 °F83 %29.92 inVariable2.3 mphClear
4:55 AM66.2 °F60.8 °F83 %29.92 inNW (310°)5.8 mphClear
5:00 AM65.0 °F62.0 °F85 %29.92 in5.0 miNW (310°)4.5 mphMist
5:25 AM66.2 °F62.6 °F88 %29.89 inNorth (360°)3.5 mphClear
5:55 AM68.0 °F62.6 °F83 %29.89 inNNE (20°)3.5 mphClear
6:25 AM68.0 °F62.6 °F83 %29.89 inNE (50°)3.5 mphClear
6:55 AM68.0 °F62.6 °F83 %29.89 inNW (320°)3.5 mphClear
7:25 AM69.8 °F62.6 °F78 %29.89 in5.6 miNorth (350°)4.6 mph
7:55 AM69.8 °F62.6 °F78 %29.89 in5.6 miNorth (350°)5.8 mph
8:00 AM70.0 °F63.0 °F71 %29.91 in7.0 miNorth (10°)4.5 mphPartly Cloudy
8:25 AM69.8 °F62.6 °F78 %29.89 in5.6 miNNW (340°)4.6 mph
8:55 AM69.8 °F64.4 °F83 %29.92 in5.0 miNNW (330°)2.3 mph
9:25 AM71.6 °F64.4 °F78 %29.92 in5.0 miVariable2.3 mph
9:55 AM71.6 °F64.4 °F78 %29.95 in5.0 miSE (130°)3.5 mph
10:25 AM73.4 °F64.4 °F73 %29.95 in5.0 miSW (220°)4.6 mph
10:55 AM71.6 °F64.4 °F78 %29.95 in3.7 miNW (310°)11.5 mph
11:00 AM71.0 °F64.0 °F74 %29.94 in6.0 miNW (320°)13.4 mphLight Haze
11:25 AM71.6 °F62.6 °F73 %29.89 inNNW (330°)16.1 mphClear
11:55 AM71.6 °F62.6 °F73 %29.89 inNorth (350°)13.8 mphClear
12:25 PM71.6 °F62.6 °F73 %29.92 inNNW (330°)18.4 mphClear
12:55 PM69.8 °F60.8 °F73 %29.95 inNNE (20°)12.7 mphClear
1:25 PM75.2 °F62.6 °F65 %29.92 inNorth (10°)11.5 mphClear
1:55 PM75.2 °F62.6 °F65 %29.92 inNNE (20°)11.5 mphClear
2:00 PM74.0 °F63.0 °F60 %29.94 in12.0 miNNE (20°)11.2 mphRainRain
2:25 PM75.2 °F64.4 °F69 %29.92 inNNE (30°)10.4 mphClear
2:55 PM75.2 °F62.6 °F65 %29.92 inNNE (20°)11.5 mphClear
3:25 PM75.2 °F62.6 °F65 %29.92 inNorth (360°)11.5 mphClear
3:55 PM75.2 °F64.4 °F69 %29.95 inNE (50°)10.4 mphClear
4:25 PM75.2 °F64.4 °F69 %29.92 inENE (70°)12.7 mphClear
4:55 PM75.2 °F64.4 °F69 %29.92 inENE (60°)9.2 mphClear
5:00 PM75.0 °F64.0 °F59 %29.96 in19.0 miNE (40°)6.7 mphOvercast
5:25 PM75.2 °F64.4 °F69 %29.95 inNE (50°)5.8 mphClear
5:55 PM75.2 °F62.6 °F65 %29.95 inNNE (20°)9.2 mphClear
6:25 PM75.2 °F62.6 °F65 %29.92 inNE (40°)10.4 mphClear
6:55 PM73.4 °F64.4 °F73 %29.89 inNE (40°)12.7 mphClear
7:25 PM73.4 °F64.4 °F73 %29.89 inNorth (10°)10.4 mphClear
7:55 PM73.4 °F62.6 °F69 %29.92 inNNE (20°)10.4 mphClear
8:00 PM74.0 °F63.0 °F60 %29.92 in16.0 miNorth (350°)11.2 mphPartly Cloudy
8:25 PM71.6 °F64.4 °F78 %29.92 inNNW (340°)13.8 mphClear
8:55 PM71.6 °F60.8 °F69 %29.92 inNorth (10°)10.4 mphClear
9:25 PM69.8 °F60.8 °F73 %29.92 inNorth (10°)8.1 mphClear
9:55 PM68.0 °F60.8 °F78 %29.95 inNNW (340°)9.2 mphClear
10:25 PM66.2 °F60.8 °F83 %29.95 inNorth (350°)8.1 mphClear
10:55 PM66.2 °F60.8 °F83 %29.95 inNorth (10°)6.9 mphClear
11:00 PM65.0 °F61.0 °F81 %29.96 in10.0 miNorth (10°)6.7 mphScattered Clouds
11:25 PM64.4 °F60.8 °F88 %29.95 inNNW (330°)4.6 mphClear
11:55 PM62.6 °F60.8 °F94 %29.95 in5.0 miNW (320°)5.8 mph
Hourly data recorded from EHAM, located miles away from Haarlem, Netherlands







STORIES FROM OUR PARTNERS